Regional Weather Roundup
Issued by NWS

Home | Current Version | Previous Version | Text Only | Print | Product List | Glossary Off
Versions: 1 2 3 4 5 6 7 8 9 10 11 12 13 14 15 16 17 18 19 20 21 22 23 24 25 26 27 28 29 30 31 32 33 34 35 36 37 38 39 40 41 42 43 44 45 46 47 48 49 50

408
ASUS43 KDMX 050701
RWRIA

WEATHER ROUNDUP FOR IOWA
NATIONAL WEATHER SERVICE DES MOINES IA
100 AM CST MON DEC 05 2016

NOTE: "FAIR" INDICATES FEW OR NO CLOUDS BELOW 12,000 FEET WITH NO
SIGNIFICANT WEATHER AND/OR OBSTRUCTIONS TO VISIBILITY.

* - THESE STATIONS ARE NOT NWS STATIONS...THUS NOT UNDER NWS
QUALITY CONTROL.  THEY ALSO DO NOT REPORT WEATHER SUCH
AS PRECIPITATION OR FOG.

IAZ001>003-012>014-020>022-031>034-043>046-050800-
   NORTHWEST IOWA

CITY           SKY/WX    TMP DP  RH WIND       PRES   REMARKS
CARROLL *      CLEAR     34  32  93 SW8       29.85S WCI  27
CHEROKEE *     PTCLDY    31  31 100 S7        29.81F WCI  24
DENISON *      CLEAR     32  30  93 S6        29.82F WCI  26
LE MARS *      CLOUDY    32  30  93 S7        29.80F WCI  26
ORANGE CITY *  CLOUDY    30  30 100 CALM      29.78F
SHELDON *      CLOUDY    30  30 100 SE8       29.77F WCI  23
SIOUX CITY     CLEAR     31  29  92 SE8       29.80F WCI  23
SPENCER        CLEAR     30  29  96 SW12      29.81F WCI  20
STORM LAKE *   CLEAR     32  30  93 S12       29.81F WCI  23
$$

IAZ055>058-069>071-079>083-090>094-050800-
   SOUTHWEST IOWA

CITY           SKY/WX    TMP DP  RH WIND       PRES   REMARKS
ATLANTIC *     CLEAR     32  32 100 S6        29.87F WCI  26
AUDUBON *      CLEAR     28  27  93 CALM      29.87S FOG
CLARINDA *       N/A     30  32 100 SW6       29.93F FOG     WCI  24
COUNCIL BLFS * CLEAR     32  30  93 S9        29.85F WCI  24
CRESTON *      PTCLDY    28  30 100 S5        29.91F FOG     WCI  23
HARLAN  *      CLEAR     30  30 100 CALM      29.89S FOG
LAMONI         FOG       30  30 100 S5        29.93F VSB 1/4 WCI  25
RED OAK *      CLEAR     32  32 100 S7        29.89F WCI  26
SHENANDOAH *   CLEAR     30  30 100 S8        29.90F WCI  23
$$

IAZ047>049-059>061-072>074-084-050800-
   CENTRAL IOWA

CITY           SKY/WX    TMP DP  RH WIND       PRES   REMARKS
AMES           CLEAR     28  28 100 SE5       29.88F FOG     WCI  23
ANKENY *       CLEAR     32 N/A N/A S7        29.91F HAZE    WCI  26
BOONE *        CLEAR     32  32 100 SW6       29.86F WCI  26
CHARITON *     FOG       34  32  93 SW10      29.93S VSB 1/2 WCI  26
DES MOINES     CLEAR     31  30  96 S12       29.90F FOG     WCI  22
GRINNELL*      PTCLDY    31  31  98 S6        29.91F FOG     WCI  25
KNOXVILLE *    PTCLDY    32  32 100 S12       29.91S WCI  23
MARSHALLTOWN   CLEAR     30  30 100 S6        29.89F FOG     WCI  24
NEWTON *       FOG       28  28 100 S8        29.90F VSB<1/4 WCI  20
PELLA *        CLEAR     33  32  98 S6        29.93F FOG     WCI  27
PERRY *          N/A     31  31 100 SE7       29.87F WCI  24
$$

IAZ004>006-015-016-023>025-035-036-050800-
   NORTH CENTRAL IOWA

CITY           SKY/WX    TMP DP  RH WIND       PRES   REMARKS
ALGONA *       CLEAR     32  32 100 S13       29.83S WCI  22
CLARION *      CLEAR     30  30 100 S7        29.85F FOG     WCI  23
ESTHERVILLE    CLEAR     32  32 100 SW7       29.80F WCI  26
FORT DODGE *   CLEAR     30  27  86 SW5       29.85F WCI  25
MASON CITY     CLEAR     31  29  92 SW12      29.86S WCI  22
WEBSTER CITY * CLEAR     28  30 100 S8        29.84F WCI  20
IOWA FALLS *     N/A     31  30  93 SW6       29.88F WCI  26
$$

IAZ007>011-017>019-026>030-037>042-050>054-066-050800-
   NORTHEAST IOWA

CITY           SKY/WX    TMP DP  RH WIND       PRES   REMARKS
CEDAR RAPIDS   CLOUDY    33  33 100 S7        29.92F FOG     WCI  27
CHARLES CITY * CLOUDY    28  28 100 S8        29.87S FOG     WCI  20
CLINTON *      CLOUDY    33  32  96 W12       29.96S WCI  24
DECORAH *      CLOUDY    32  32 100 VRB6G12   29.86S FOG     WCI  26
DUBUQUE        CLOUDY    32  31  96 SW12      29.91S FOG     WCI  23
MONTICELLO *   CLOUDY    36  34  93 SW7       29.92F FOG     WCI  30
OELWEIN *      CLOUDY    30  30 100 SW10      29.89S FOG     WCI  21
WATERLOO       CLEAR     32  30  92 SW8       29.89S FOG     WCI  25
$$

IAZ064-065-067-068-078-050800-
   EAST CENTRAL IOWA

CITY           SKY/WX    TMP DP  RH WIND       PRES   REMARKS
DAVENPORT      CLOUDY    34  31  88 W14       29.96F WCI  25
IOWA CITY      CLOUDY    35  33  92 SW3       29.96F
MUSCATINE *    CLOUDY    36  32  87 W6        29.97F WCI  31
QUAD CITIES    CLOUDY    35  31  85 SW8       29.97S WCI  29
$$

IAZ062-063-075>077-085>089-095>099-050800-
   SOUTHEAST IOWA

CITY           SKY/WX    TMP DP  RH WIND       PRES   REMARKS
BURLINGTON     CLOUDY    33  33 100 SW5       29.98F WCI  29
FAIRFIELD *    CLOUDY    34  32  93 SW6       29.95F FOG     WCI  29
FORT MADISON * CLOUDY    34  34 100 SW3       29.99S
KEOKUK *       CLOUDY    34  34 100 SW6       29.98S WCI  29
OSKALOOSA *    CLOUDY    33  33  98 SW9       29.94F FOG     WCI  26
CENTERVILLE *  FOG       32  32 100 S7        29.97R VSB 1   WCI  26
OTTUMWA        CLOUDY    34  32  92 SW8       29.94F FOG     WCI  27
WASHINGTON *   CLOUDY    34  32  93 SW7       29.97S FOG     WCI  28
$$

ABBREVIATIONS USED IN REMARKS
   TC - TEMPERATURES IN CELSIUS
  WCI - WIND CHILL INDEX
   HX - HEAT INDEX
  VSB - VISIBILITY
$$





USA.gov is the U.S. government's official web portal to all federal, state and local government web resources and services.